Year,Month,Day,Hour,Minute,Value (Times are PST for temperature in C)
2016,07,21,00,00,16.50
2016,07,21,00,01,16.40
2016,07,21,00,02,16.40
2016,07,21,00,03,16.40
2016,07,21,00,04,16.40
2016,07,21,00,05,16.40
2016,07,21,00,06,16.30
2016,07,21,00,07,16.30
2016,07,21,00,08,16.30
2016,07,21,00,09,16.30
2016,07,21,00,10,16.30
2016,07,21,00,11,16.30
2016,07,21,00,12,16.20
2016,07,21,00,13,16.20
2016,07,21,00,14,16.20
2016,07,21,00,15,16.20
2016,07,21,00,16,16.20
2016,07,21,00,17,16.10
2016,07,21,00,18,16.10
2016,07,21,00,19,16.10
2016,07,21,00,20,16.10
2016,07,21,00,21,16.00
2016,07,21,00,22,16.00
2016,07,21,00,23,16.00
2016,07,21,00,24,15.90
2016,07,21,00,25,15.90
2016,07,21,00,26,15.90
2016,07,21,00,27,15.90
2016,07,21,00,28,15.90
2016,07,21,00,29,15.90
2016,07,21,00,30,15.90
2016,07,21,00,31,15.80
2016,07,21,00,32,15.80
2016,07,21,00,33,15.80
2016,07,21,00,34,15.80
2016,07,21,00,35,15.80
2016,07,21,00,36,15.80
2016,07,21,00,37,15.80
2016,07,21,00,38,15.80
2016,07,21,00,39,15.80
2016,07,21,00,40,15.70
2016,07,21,00,41,15.70
2016,07,21,00,42,15.70
2016,07,21,00,43,15.70
2016,07,21,00,44,15.70
2016,07,21,00,45,15.70
2016,07,21,00,46,15.70
2016,07,21,00,47,15.70
2016,07,21,00,48,15.60
2016,07,21,00,49,15.60
2016,07,21,00,50,15.60
2016,07,21,00,51,15.60
2016,07,21,00,52,15.50
2016,07,21,00,53,15.50
2016,07,21,00,54,15.50
2016,07,21,00,55,15.40
2016,07,21,00,56,15.40
2016,07,21,00,57,15.40
2016,07,21,00,58,15.40
2016,07,21,00,59,15.30
2016,07,21,01,00,15.30
2016,07,21,01,01,15.30
2016,07,21,01,02,15.30
2016,07,21,01,03,15.30
2016,07,21,01,04,15.30
2016,07,21,01,05,15.20
2016,07,21,01,06,15.20
2016,07,21,01,07,15.20
2016,07,21,01,08,15.10
2016,07,21,01,09,15.10
2016,07,21,01,10,15.10
2016,07,21,01,11,15.00
2016,07,21,01,12,15.00
2016,07,21,01,13,15.00
2016,07,21,01,14,15.00
2016,07,21,01,15,15.00
2016,07,21,01,16,15.00
2016,07,21,01,17,15.00
2016,07,21,01,18,15.00
2016,07,21,01,19,15.00
2016,07,21,01,20,15.00
2016,07,21,01,21,15.00
2016,07,21,01,22,15.00
2016,07,21,01,23,15.00
2016,07,21,01,24,15.00
2016,07,21,01,25,14.90
2016,07,21,01,26,14.90
2016,07,21,01,27,14.90
2016,07,21,01,28,14.80
2016,07,21,01,29,14.80
2016,07,21,01,30,14.80
2016,07,21,01,31,14.80
2016,07,21,01,32,14.80
2016,07,21,01,33,14.80
2016,07,21,01,34,14.80
2016,07,21,01,35,14.90
2016,07,21,01,36,14.90
2016,07,21,01,37,14.90
2016,07,21,01,38,14.90
2016,07,21,01,39,14.90
2016,07,21,01,40,14.90
2016,07,21,01,41,14.90
2016,07,21,01,42,14.90
2016,07,21,01,43,15.00
2016,07,21,01,44,15.00
2016,07,21,01,45,15.00
2016,07,21,01,46,15.00
2016,07,21,01,47,15.00
2016,07,21,01,48,15.00
2016,07,21,01,49,15.00
2016,07,21,01,50,15.00
2016,07,21,01,51,15.00
2016,07,21,01,52,14.90
2016,07,21,01,53,14.90
2016,07,21,01,54,14.90
2016,07,21,01,55,14.90
2016,07,21,01,56,14.80
2016,07,21,01,57,14.80
2016,07,21,01,58,14.80
2016,07,21,01,59,14.80
2016,07,21,02,00,14.80
2016,07,21,02,01,14.80
2016,07,21,02,02,14.80
2016,07,21,02,03,14.70
2016,07,21,02,04,14.70
2016,07,21,02,05,14.70
2016,07,21,02,06,14.70
2016,07,21,02,07,14.60
2016,07,21,02,08,14.60
2016,07,21,02,09,14.60
2016,07,21,02,10,14.60
2016,07,21,02,11,14.50
2016,07,21,02,12,14.50
2016,07,21,02,13,14.50
2016,07,21,02,14,14.50
2016,07,21,02,15,14.50
2016,07,21,02,16,14.50
2016,07,21,02,17,14.40
2016,07,21,02,18,14.40
2016,07,21,02,19,14.40
2016,07,21,02,20,14.40
2016,07,21,02,21,14.40
2016,07,21,02,22,14.40
2016,07,21,02,23,14.40
2016,07,21,02,24,14.30
2016,07,21,02,25,14.30
2016,07,21,02,26,14.30
2016,07,21,02,27,14.30
2016,07,21,02,28,14.30
2016,07,21,02,29,14.30
2016,07,21,02,30,14.30
2016,07,21,02,31,14.30
2016,07,21,02,32,14.20
2016,07,21,02,33,14.20
2016,07,21,02,34,14.20
2016,07,21,02,35,14.20
2016,07,21,02,36,14.20
2016,07,21,02,37,14.20
2016,07,21,02,38,14.10
2016,07,21,02,39,14.10
2016,07,21,02,40,14.10
2016,07,21,02,41,14.10
2016,07,21,02,42,14.10
2016,07,21,02,43,14.10
2016,07,21,02,44,14.10
2016,07,21,02,45,14.10
2016,07,21,02,46,14.00
2016,07,21,02,47,14.00
2016,07,21,02,48,14.00
2016,07,21,02,49,14.00
2016,07,21,02,50,14.00
2016,07,21,02,51,14.00
2016,07,21,02,52,14.00
2016,07,21,02,53,13.90
2016,07,21,02,54,13.90
2016,07,21,02,55,13.90
2016,07,21,02,56,13.90
2016,07,21,02,57,13.90
2016,07,21,02,58,13.80
2016,07,21,02,59,13.80
2016,07,21,03,00,13.80
2016,07,21,03,01,13.80
2016,07,21,03,02,13.80
2016,07,21,03,03,13.80
2016,07,21,03,04,13.80
2016,07,21,03,05,13.80
2016,07,21,03,06,13.80
2016,07,21,03,07,13.80
2016,07,21,03,08,13.80
2016,07,21,03,09,13.80
2016,07,21,03,10,13.70
2016,07,21,03,11,13.70
2016,07,21,03,12,13.70
2016,07,21,03,13,13.70
2016,07,21,03,14,13.70
2016,07,21,03,15,13.80
2016,07,21,03,16,13.80
2016,07,21,03,17,13.80
2016,07,21,03,18,13.80
2016,07,21,03,19,13.80
2016,07,21,03,20,13.80
2016,07,21,03,21,13.80
2016,07,21,03,22,13.80
2016,07,21,03,23,13.80
2016,07,21,03,24,13.80
2016,07,21,03,25,13.80
2016,07,21,03,26,13.80
2016,07,21,03,27,13.70
2016,07,21,03,28,13.70
2016,07,21,03,29,13.70
2016,07,21,03,30,13.70
2016,07,21,03,31,13.70
2016,07,21,03,32,13.60
2016,07,21,03,33,13.60
2016,07,21,03,34,13.60
2016,07,21,03,35,13.60
2016,07,21,03,36,13.60
2016,07,21,03,37,13.60
2016,07,21,03,38,13.60
2016,07,21,03,39,13.60
2016,07,21,03,40,13.60
2016,07,21,03,41,13.60
2016,07,21,03,42,13.60
2016,07,21,03,43,13.60
2016,07,21,03,44,13.60
2016,07,21,03,45,13.60
2016,07,21,03,46,13.60
2016,07,21,03,47,13.60
2016,07,21,03,48,13.60
2016,07,21,03,49,13.60
2016,07,21,03,50,13.50
2016,07,21,03,51,13.50
2016,07,21,03,52,13.50
2016,07,21,03,53,13.50
2016,07,21,03,54,13.50
2016,07,21,03,55,13.50
2016,07,21,03,56,13.50
2016,07,21,03,57,13.50
2016,07,21,03,58,13.50
2016,07,21,03,59,13.50
2016,07,21,04,00,13.40
2016,07,21,04,01,13.40
2016,07,21,04,02,13.40
2016,07,21,04,03,13.40
2016,07,21,04,04,13.40
2016,07,21,04,05,13.30
2016,07,21,04,06,13.30
2016,07,21,04,07,13.30
2016,07,21,04,08,13.30
2016,07,21,04,09,13.30
2016,07,21,04,10,13.30
2016,07,21,04,11,13.30
2016,07,21,04,12,13.30
2016,07,21,04,13,13.30
2016,07,21,04,14,13.30
2016,07,21,04,15,13.30
2016,07,21,04,16,13.30
2016,07,21,04,17,13.30
2016,07,21,04,18,13.30
2016,07,21,04,19,13.30
2016,07,21,04,20,13.20
2016,07,21,04,21,13.20
2016,07,21,04,22,13.20
2016,07,21,04,23,13.20
2016,07,21,04,24,13.20
2016,07,21,04,25,13.20
2016,07,21,04,26,13.20
2016,07,21,04,27,13.20
2016,07,21,04,28,13.20
2016,07,21,04,29,13.10
2016,07,21,04,30,13.10
2016,07,21,04,31,13.10
2016,07,21,04,32,13.10
2016,07,21,04,33,13.10
2016,07,21,04,34,13.10
2016,07,21,04,35,13.10
2016,07,21,04,36,13.10
2016,07,21,04,37,13.10
2016,07,21,04,38,13.10
2016,07,21,04,39,13.10
2016,07,21,04,40,13.10
2016,07,21,04,41,13.10
2016,07,21,04,42,13.10
2016,07,21,04,43,13.10
2016,07,21,04,44,13.10
2016,07,21,04,45,13.10
2016,07,21,04,46,13.10
2016,07,21,04,47,13.00
2016,07,21,04,48,13.00
2016,07,21,04,49,13.00
2016,07,21,04,50,13.00
2016,07,21,04,51,13.00
2016,07,21,04,52,13.00
2016,07,21,04,53,13.00
2016,07,21,04,54,13.00
2016,07,21,04,55,13.00
2016,07,21,04,56,12.90
2016,07,21,04,57,12.90
2016,07,21,04,58,12.90
2016,07,21,04,59,12.90
2016,07,21,05,00,12.90
2016,07,21,05,01,12.90
2016,07,21,05,02,12.90
2016,07,21,05,03,12.90
2016,07,21,05,04,12.90
2016,07,21,05,05,12.90
2016,07,21,05,06,12.90
2016,07,21,05,07,12.90
2016,07,21,05,08,12.90
2016,07,21,05,09,12.90
2016,07,21,05,10,12.90
2016,07,21,05,11,13.00
2016,07,21,05,12,13.00
2016,07,21,05,13,13.00
2016,07,21,05,14,13.00
2016,07,21,05,15,13.00
2016,07,21,05,16,13.00
2016,07,21,05,17,13.00
2016,07,21,05,18,13.00
2016,07,21,05,19,12.90
2016,07,21,05,20,12.90
2016,07,21,05,21,12.90
2016,07,21,05,22,12.90
2016,07,21,05,23,12.90
2016,07,21,05,24,12.90
2016,07,21,05,25,12.90
2016,07,21,05,26,12.90
2016,07,21,05,27,12.90
2016,07,21,05,28,12.90
2016,07,21,05,29,12.90
2016,07,21,05,30,12.90
2016,07,21,05,31,12.90
2016,07,21,05,32,12.90
2016,07,21,05,33,12.90
2016,07,21,05,34,12.90
2016,07,21,05,35,12.90
2016,07,21,05,36,12.90
2016,07,21,05,37,12.90
2016,07,21,05,38,12.90
2016,07,21,05,39,12.90
2016,07,21,05,40,12.80
2016,07,21,05,41,12.80
2016,07,21,05,42,12.80
2016,07,21,05,43,12.80
2016,07,21,05,44,12.80
2016,07,21,05,45,12.80
2016,07,21,05,46,12.80
2016,07,21,05,47,12.80
2016,07,21,05,48,12.80
2016,07,21,05,49,12.80
2016,07,21,05,50,12.80
2016,07,21,05,51,12.70
2016,07,21,05,52,12.70
2016,07,21,05,53,12.70
2016,07,21,05,54,12.70
2016,07,21,05,55,12.70
2016,07,21,05,56,12.70
2016,07,21,05,57,12.70
2016,07,21,05,58,12.70
2016,07,21,05,59,12.70
2016,07,21,06,00,12.70
2016,07,21,06,01,12.70
2016,07,21,06,02,12.60
2016,07,21,06,03,12.60
2016,07,21,06,04,12.60
2016,07,21,06,05,12.60
2016,07,21,06,06,12.60
2016,07,21,06,07,12.60
2016,07,21,06,08,12.60
2016,07,21,06,09,12.60
2016,07,21,06,10,12.60
2016,07,21,06,11,12.60
2016,07,21,06,12,12.60
2016,07,21,06,13,12.60
2016,07,21,06,14,12.60
2016,07,21,06,15,12.60
2016,07,21,06,16,12.60
2016,07,21,06,17,12.60
2016,07,21,06,18,12.60
2016,07,21,06,19,12.60
2016,07,21,06,20,12.60
2016,07,21,06,21,12.60
2016,07,21,06,22,12.60
2016,07,21,06,23,12.60
2016,07,21,06,24,12.60
2016,07,21,06,25,12.70
2016,07,21,06,26,12.70
2016,07,21,06,27,12.70
2016,07,21,06,28,12.70
2016,07,21,06,29,12.70
2016,07,21,06,30,12.70
2016,07,21,06,31,12.70
2016,07,21,06,32,12.70
2016,07,21,06,33,12.80
2016,07,21,06,34,12.80
2016,07,21,06,35,12.80
2016,07,21,06,36,12.80
2016,07,21,06,37,12.80
2016,07,21,06,38,12.80
2016,07,21,06,39,12.80
2016,07,21,06,40,12.80
2016,07,21,06,41,12.80
2016,07,21,06,42,12.80
2016,07,21,06,43,12.80
2016,07,21,06,44,12.80
2016,07,21,06,45,12.80
2016,07,21,06,46,12.90
2016,07,21,06,47,12.90
2016,07,21,06,48,12.90
2016,07,21,06,49,12.90
2016,07,21,06,50,12.90
2016,07,21,06,51,13.00
2016,07,21,06,52,13.00
2016,07,21,06,53,13.10
2016,07,21,06,54,13.10
2016,07,21,06,55,13.10
2016,07,21,06,56,13.10
2016,07,21,06,57,13.20
2016,07,21,06,58,13.20
2016,07,21,06,59,13.20
2016,07,21,07,00,13.20
2016,07,21,07,01,13.20
2016,07,21,07,02,13.30
2016,07,21,07,03,13.30
2016,07,21,07,04,13.30
2016,07,21,07,05,13.40
2016,07,21,07,06,13.40
2016,07,21,07,07,13.40
2016,07,21,07,08,13.50
2016,07,21,07,09,13.60
2016,07,21,07,10,13.60
2016,07,21,07,11,13.70
2016,07,21,07,12,13.70
2016,07,21,07,13,13.70
2016,07,21,07,14,13.80
2016,07,21,07,15,13.80
2016,07,21,07,16,13.90
2016,07,21,07,17,13.90
2016,07,21,07,18,14.00
2016,07,21,07,19,14.00
2016,07,21,07,20,14.10
2016,07,21,07,21,14.10
2016,07,21,07,22,14.20
2016,07,21,07,23,14.20
2016,07,21,07,24,14.20
2016,07,21,07,25,14.30
2016,07,21,07,26,14.30
2016,07,21,07,27,14.40
2016,07,21,07,28,14.50
2016,07,21,07,29,14.50
2016,07,21,07,30,14.60
2016,07,21,07,31,14.70
2016,07,21,07,32,14.80
2016,07,21,07,33,14.90
2016,07,21,07,34,15.00
2016,07,21,07,35,15.00
2016,07,21,07,36,15.20
2016,07,21,07,37,15.30
2016,07,21,07,38,15.40
2016,07,21,07,39,15.50
2016,07,21,07,40,15.60
2016,07,21,07,41,15.70
2016,07,21,07,42,15.80
2016,07,21,07,43,16.00
2016,07,21,07,44,16.20
2016,07,21,07,45,16.40
2016,07,21,07,46,16.50
2016,07,21,07,47,16.60
2016,07,21,07,48,16.80
2016,07,21,07,49,17.00
2016,07,21,07,50,17.10
2016,07,21,07,51,17.20
2016,07,21,07,52,17.30
2016,07,21,07,53,17.40
2016,07,21,07,54,17.50
2016,07,21,07,55,17.70
2016,07,21,07,56,17.80
2016,07,21,07,57,17.90
2016,07,21,07,58,18.00
2016,07,21,07,59,18.00
2016,07,21,08,00,18.20
2016,07,21,08,01,18.30
2016,07,21,08,02,18.40
2016,07,21,08,03,18.40
2016,07,21,08,04,18.50
2016,07,21,08,05,18.60
2016,07,21,08,06,18.70
2016,07,21,08,07,18.70
2016,07,21,08,08,18.80
2016,07,21,08,09,18.80
2016,07,21,08,10,18.90
2016,07,21,08,11,18.90
2016,07,21,08,12,19.00
2016,07,21,08,13,19.10
2016,07,21,08,14,19.10
2016,07,21,08,15,19.20
2016,07,21,08,16,19.30
2016,07,21,08,17,19.30
2016,07,21,08,18,19.40
2016,07,21,08,19,19.50
2016,07,21,08,20,19.50
2016,07,21,08,21,19.60
2016,07,21,08,22,19.60
2016,07,21,08,23,19.70
2016,07,21,08,24,19.70
2016,07,21,08,25,19.80
2016,07,21,08,26,19.90
2016,07,21,08,27,19.90
2016,07,21,08,28,20.00
2016,07,21,08,29,20.10
2016,07,21,08,30,20.20
2016,07,21,08,31,20.40
2016,07,21,08,32,20.50
2016,07,21,08,33,20.60
2016,07,21,08,34,20.70
2016,07,21,08,35,20.80
2016,07,21,08,36,20.90
2016,07,21,08,37,21.00
2016,07,21,08,38,21.10
2016,07,21,08,39,21.10
2016,07,21,08,40,21.20
2016,07,21,08,41,21.20
2016,07,21,08,42,21.20
2016,07,21,08,43,21.20
2016,07,21,08,44,21.20
2016,07,21,08,45,21.20
2016,07,21,08,46,21.30
2016,07,21,08,47,21.30
2016,07,21,08,48,21.40
2016,07,21,08,49,21.50
2016,07,21,08,50,21.60
2016,07,21,08,51,21.60
2016,07,21,08,52,21.60
2016,07,21,08,53,21.70
2016,07,21,08,54,21.70
2016,07,21,08,55,21.70
2016,07,21,08,56,21.80
2016,07,21,08,57,21.80
2016,07,21,08,58,21.90
2016,07,21,08,59,21.90
2016,07,21,09,00,22.00
2016,07,21,09,01,21.90
2016,07,21,09,02,22.00
2016,07,21,09,03,21.90
2016,07,21,09,04,21.90
2016,07,21,09,05,21.90
2016,07,21,09,06,22.00
2016,07,21,09,07,22.00
2016,07,21,09,08,22.10
2016,07,21,09,09,22.10
2016,07,21,09,10,22.10
2016,07,21,09,11,22.20
2016,07,21,09,12,22.20
2016,07,21,09,13,22.30
2016,07,21,09,14,22.40
2016,07,21,09,15,22.40
2016,07,21,09,16,22.50
2016,07,21,09,17,22.40
2016,07,21,09,18,22.30
2016,07,21,09,19,22.30
2016,07,21,09,20,22.30
2016,07,21,09,21,22.30
2016,07,21,09,22,22.30
2016,07,21,09,23,22.40
2016,07,21,09,24,22.40
2016,07,21,09,25,22.40
2016,07,21,09,26,22.30
2016,07,21,09,27,22.10
2016,07,21,09,28,22.10
2016,07,21,09,29,21.90
2016,07,21,09,30,21.90
2016,07,21,09,31,21.90
2016,07,21,09,32,22.00
2016,07,21,09,33,22.20
2016,07,21,09,34,22.30
2016,07,21,09,35,22.40
2016,07,21,09,36,22.40
2016,07,21,09,37,22.40
2016,07,21,09,38,22.50
2016,07,21,09,39,22.40
2016,07,21,09,40,22.30
2016,07,21,09,41,22.30
2016,07,21,09,42,22.20
2016,07,21,09,43,22.10
2016,07,21,09,44,22.10
2016,07,21,09,45,22.20
2016,07,21,09,46,22.30
2016,07,21,09,47,22.30
2016,07,21,09,48,22.40
2016,07,21,09,49,22.50
2016,07,21,09,50,22.60
2016,07,21,09,51,22.70
2016,07,21,09,52,22.80
2016,07,21,09,53,22.80
2016,07,21,09,54,22.90
2016,07,21,09,55,22.90
2016,07,21,09,56,22.90
2016,07,21,09,57,23.00
2016,07,21,09,58,23.10
2016,07,21,09,59,23.20
2016,07,21,10,00,23.20
2016,07,21,10,01,23.30
2016,07,21,10,02,23.40
2016,07,21,10,03,23.50
2016,07,21,10,04,23.60
2016,07,21,10,05,23.60
2016,07,21,10,06,23.60
2016,07,21,10,07,23.60
2016,07,21,10,08,23.50
2016,07,21,10,09,23.50
2016,07,21,10,10,23.50
2016,07,21,10,11,23.60
2016,07,21,10,12,23.60
2016,07,21,10,13,23.60
2016,07,21,10,14,23.60
2016,07,21,10,15,23.70
2016,07,21,10,16,23.70
2016,07,21,10,17,23.80
2016,07,21,10,18,23.90
2016,07,21,10,19,24.10
2016,07,21,10,20,24.20
2016,07,21,10,21,24.20
2016,07,21,10,22,24.10
2016,07,21,10,23,23.80
2016,07,21,10,24,23.60
2016,07,21,10,25,23.50
2016,07,21,10,26,23.40
2016,07,21,10,27,23.40
2016,07,21,10,28,23.40
2016,07,21,10,29,23.30
2016,07,21,10,30,23.30
2016,07,21,10,31,23.20
2016,07,21,10,32,23.20
2016,07,21,10,33,23.20
2016,07,21,10,34,23.20
2016,07,21,10,35,23.20
2016,07,21,10,36,23.20
2016,07,21,10,37,23.20
2016,07,21,10,38,23.20
2016,07,21,10,39,23.20
2016,07,21,10,40,23.30
2016,07,21,10,41,23.40
2016,07,21,10,42,23.40
2016,07,21,10,43,23.60
2016,07,21,10,44,23.60
2016,07,21,10,45,23.70
2016,07,21,10,46,23.70
2016,07,21,10,47,23.80
2016,07,21,10,48,23.90
2016,07,21,10,49,24.00
2016,07,21,10,50,24.10
2016,07,21,10,51,24.20
2016,07,21,10,52,24.30
2016,07,21,10,53,24.40
2016,07,21,10,54,24.30
2016,07,21,10,55,24.20
2016,07,21,10,56,24.10
2016,07,21,10,57,24.00
2016,07,21,10,58,24.00
2016,07,21,10,59,24.00
2016,07,21,11,00,24.10
2016,07,21,11,01,24.10
2016,07,21,11,02,24.10
2016,07,21,11,03,24.20
2016,07,21,11,04,24.20
2016,07,21,11,05,24.30
2016,07,21,11,06,24.40
2016,07,21,11,07,24.50
2016,07,21,11,08,24.60
2016,07,21,11,09,24.70
2016,07,21,11,10,24.70
2016,07,21,11,11,24.50
2016,07,21,11,12,24.40
2016,07,21,11,13,24.50
2016,07,21,11,14,24.50
2016,07,21,11,15,24.60
2016,07,21,11,16,24.80
2016,07,21,11,17,24.90
2016,07,21,11,18,25.00
2016,07,21,11,19,24.90
2016,07,21,11,20,25.00
2016,07,21,11,21,25.00
2016,07,21,11,22,24.90
2016,07,21,11,23,24.80
2016,07,21,11,24,24.70
2016,07,21,11,25,24.60
2016,07,21,11,26,24.70
2016,07,21,11,27,24.70
2016,07,21,11,28,24.80
2016,07,21,11,29,24.90
2016,07,21,11,30,24.90
2016,07,21,11,31,25.00
2016,07,21,11,32,25.10
2016,07,21,11,33,25.20
2016,07,21,11,34,25.30
2016,07,21,11,35,25.40
2016,07,21,11,36,25.40
2016,07,21,11,37,25.40
2016,07,21,11,38,25.40
2016,07,21,11,39,25.40
2016,07,21,11,40,25.40
2016,07,21,11,41,25.40
2016,07,21,11,42,25.50
2016,07,21,11,43,25.50
2016,07,21,11,44,25.40
2016,07,21,11,45,25.20
2016,07,21,11,46,25.00
2016,07,21,11,47,25.00
2016,07,21,11,48,24.90
2016,07,21,11,49,24.90
2016,07,21,11,50,24.80
2016,07,21,11,51,24.80
2016,07,21,11,52,24.80
2016,07,21,11,53,24.80
2016,07,21,11,54,24.70
2016,07,21,11,55,24.60
2016,07,21,11,56,24.40
2016,07,21,11,57,24.30
2016,07,21,11,58,24.20
2016,07,21,11,59,24.20
2016,07,21,12,00,24.30
2016,07,21,12,01,24.30
2016,07,21,12,02,24.40
2016,07,21,12,03,24.30
2016,07,21,12,04,24.20
2016,07,21,12,05,24.20
2016,07,21,12,06,24.20
2016,07,21,12,07,24.10
2016,07,21,12,08,24.10
2016,07,21,12,09,24.20
2016,07,21,12,10,24.40
2016,07,21,12,11,24.50
2016,07,21,12,12,24.60
2016,07,21,12,13,24.70
2016,07,21,12,14,24.80
2016,07,21,12,15,24.80
2016,07,21,12,16,24.80
2016,07,21,12,17,24.80
2016,07,21,12,18,25.00
2016,07,21,12,19,25.20
2016,07,21,12,20,25.30
2016,07,21,12,21,25.40
2016,07,21,12,22,25.40
2016,07,21,12,23,25.40
2016,07,21,12,24,25.50
2016,07,21,12,25,25.70
2016,07,21,12,26,25.80
2016,07,21,12,27,25.80
2016,07,21,12,28,25.80
2016,07,21,12,29,25.90
2016,07,21,12,30,26.00
2016,07,21,12,31,26.00
2016,07,21,12,32,25.90
2016,07,21,12,33,25.90
2016,07,21,12,34,25.90
2016,07,21,12,35,25.90
2016,07,21,12,36,25.90
2016,07,21,12,37,25.80
2016,07,21,12,38,25.80
2016,07,21,12,39,25.80
2016,07,21,12,40,25.70
2016,07,21,12,41,25.70
2016,07,21,12,42,25.70
2016,07,21,12,43,25.60
2016,07,21,12,44,25.60
2016,07,21,12,45,25.60
2016,07,21,12,46,25.60
2016,07,21,12,47,25.60
2016,07,21,12,48,25.70
2016,07,21,12,49,25.70
2016,07,21,12,50,25.70
2016,07,21,12,51,25.60
2016,07,21,12,52,25.40
2016,07,21,12,53,25.30
2016,07,21,12,54,25.30
2016,07,21,12,55,25.20
2016,07,21,12,56,25.30
2016,07,21,12,57,25.10
2016,07,21,12,58,25.10
2016,07,21,12,59,25.00
2016,07,21,13,00,25.00
2016,07,21,13,01,25.00
2016,07,21,13,02,25.10
2016,07,21,13,03,25.10
2016,07,21,13,04,25.00
2016,07,21,13,05,25.00
2016,07,21,13,06,25.10
2016,07,21,13,07,25.20
2016,07,21,13,08,25.20
2016,07,21,13,09,25.10
2016,07,21,13,10,25.10
2016,07,21,13,11,25.00
2016,07,21,13,12,25.00
2016,07,21,13,13,25.00
2016,07,21,13,14,25.00
2016,07,21,13,15,25.00
2016,07,21,13,16,25.00
2016,07,21,13,17,25.00
2016,07,21,13,18,25.20
2016,07,21,13,19,25.30
2016,07,21,13,20,25.40
2016,07,21,13,21,25.60
2016,07,21,13,22,25.90
2016,07,21,13,23,26.00
2016,07,21,13,24,26.20
2016,07,21,13,25,26.20
2016,07,21,13,26,26.10
2016,07,21,13,27,26.10
2016,07,21,13,28,26.30
2016,07,21,13,29,26.40
2016,07,21,13,30,26.50
2016,07,21,13,31,26.60
2016,07,21,13,32,26.60
2016,07,21,13,33,26.60
2016,07,21,13,34,26.50
2016,07,21,13,35,26.30
2016,07,21,13,36,26.30
2016,07,21,13,37,26.40
2016,07,21,13,38,26.60
2016,07,21,13,39,26.70
2016,07,21,13,40,26.80
2016,07,21,13,41,26.80
2016,07,21,13,42,26.90
2016,07,21,13,43,26.90
2016,07,21,13,44,26.80
2016,07,21,13,45,26.80
2016,07,21,13,46,26.70
2016,07,21,13,47,26.50
2016,07,21,13,48,26.40
2016,07,21,13,49,26.40
2016,07,21,13,50,26.50
2016,07,21,13,51,26.40
2016,07,21,13,52,26.30
2016,07,21,13,53,26.10
2016,07,21,13,54,25.90
2016,07,21,13,55,25.80
2016,07,21,13,56,25.70
2016,07,21,13,57,25.40
2016,07,21,13,58,25.20
2016,07,21,13,59,25.00
2016,07,21,14,00,24.90
2016,07,21,14,01,24.90
2016,07,21,14,02,24.90
2016,07,21,14,03,24.90
2016,07,21,14,04,24.90
2016,07,21,14,05,24.90
2016,07,21,14,06,24.90
2016,07,21,14,07,25.00
2016,07,21,14,08,25.10
2016,07,21,14,09,25.20
2016,07,21,14,10,25.10
2016,07,21,14,11,25.00
2016,07,21,14,12,25.00
2016,07,21,14,13,25.00
2016,07,21,14,14,24.90
2016,07,21,14,15,24.80
2016,07,21,14,16,24.70
2016,07,21,14,17,24.80
2016,07,21,14,18,24.80
2016,07,21,14,19,24.90
2016,07,21,14,20,25.00
2016,07,21,14,21,25.00
2016,07,21,14,22,25.00
2016,07,21,14,23,25.00
2016,07,21,14,24,25.10
2016,07,21,14,25,25.20
2016,07,21,14,26,25.40
2016,07,21,14,27,25.60
2016,07,21,14,28,25.70
2016,07,21,14,29,25.90
2016,07,21,14,30,25.90
2016,07,21,14,31,26.00
2016,07,21,14,32,26.10
2016,07,21,14,33,26.20
2016,07,21,14,34,26.20
2016,07,21,14,35,26.10
2016,07,21,14,36,25.90
2016,07,21,14,37,25.90
2016,07,21,14,38,25.80
2016,07,21,14,39,25.90
2016,07,21,14,40,25.90
2016,07,21,14,41,25.90
2016,07,21,14,42,26.00
2016,07,21,14,43,26.10
2016,07,21,14,44,26.30
2016,07,21,14,45,26.40
2016,07,21,14,46,26.60
2016,07,21,14,47,26.80
2016,07,21,14,48,27.00
2016,07,21,14,49,26.90
2016,07,21,14,50,26.80
2016,07,21,14,51,26.60
2016,07,21,14,52,26.40
2016,07,21,14,53,26.30
2016,07,21,14,54,26.20
2016,07,21,14,55,26.20
2016,07,21,14,56,26.20
2016,07,21,14,57,26.20
2016,07,21,14,58,26.30
2016,07,21,14,59,26.40
2016,07,21,15,00,26.50
2016,07,21,15,01,26.50
2016,07,21,15,02,26.50
2016,07,21,15,03,26.60
2016,07,21,15,04,26.60
2016,07,21,15,05,26.60
2016,07,21,15,06,26.40
2016,07,21,15,07,26.30
2016,07,21,15,08,26.20
2016,07,21,15,09,26.00
2016,07,21,15,10,25.90
2016,07,21,15,11,25.90
2016,07,21,15,12,25.80
2016,07,21,15,13,25.80
2016,07,21,15,14,25.80
2016,07,21,15,15,25.80
2016,07,21,15,16,25.80
2016,07,21,15,17,25.80
2016,07,21,15,18,25.80
2016,07,21,15,19,25.70
2016,07,21,15,20,25.60
2016,07,21,15,21,25.60
2016,07,21,15,22,25.60
2016,07,21,15,23,25.60
2016,07,21,15,24,25.70
2016,07,21,15,25,25.60
2016,07,21,15,26,25.40
2016,07,21,15,27,25.40
2016,07,21,15,28,25.50
2016,07,21,15,29,25.50
2016,07,21,15,30,25.50
2016,07,21,15,31,25.60
2016,07,21,15,32,25.60
2016,07,21,15,33,25.70
2016,07,21,15,34,25.70
2016,07,21,15,35,25.70
2016,07,21,15,36,25.70
2016,07,21,15,37,25.80
2016,07,21,15,38,25.90
2016,07,21,15,39,25.90
2016,07,21,15,40,25.90
2016,07,21,15,41,25.90
2016,07,21,15,42,26.00
2016,07,21,15,43,26.00
2016,07,21,15,44,26.10
2016,07,21,15,45,26.00
2016,07,21,15,46,25.90
2016,07,21,15,47,25.90
2016,07,21,15,48,25.90
2016,07,21,15,49,25.90
2016,07,21,15,50,25.80
2016,07,21,15,51,25.70
2016,07,21,15,52,25.60
2016,07,21,15,53,25.60
2016,07,21,15,54,25.50
2016,07,21,15,55,25.40
2016,07,21,15,56,25.40
2016,07,21,15,57,25.50
2016,07,21,15,58,25.50
2016,07,21,15,59,25.50
2016,07,21,16,00,25.40
2016,07,21,16,01,25.40
2016,07,21,16,02,25.40
2016,07,21,16,03,25.40
2016,07,21,16,04,25.40
2016,07,21,16,05,25.50
2016,07,21,16,06,25.60
2016,07,21,16,07,25.80
2016,07,21,16,08,25.80
2016,07,21,16,09,25.90
2016,07,21,16,10,25.90
2016,07,21,16,11,25.90
2016,07,21,16,12,26.00
2016,07,21,16,13,26.10
2016,07,21,16,14,26.20
2016,07,21,16,15,26.30
2016,07,21,16,16,26.30
2016,07,21,16,17,26.40
2016,07,21,16,18,26.50
2016,07,21,16,19,26.60
2016,07,21,16,20,26.70
2016,07,21,16,21,26.70
2016,07,21,16,22,26.70
2016,07,21,16,23,26.70
2016,07,21,16,24,26.70
2016,07,21,16,25,26.80
2016,07,21,16,26,26.90
2016,07,21,16,27,27.00
2016,07,21,16,28,27.10
2016,07,21,16,29,27.20
2016,07,21,16,30,27.30
2016,07,21,16,31,27.40
2016,07,21,16,32,27.40
2016,07,21,16,33,27.40
2016,07,21,16,34,27.40
2016,07,21,16,35,27.30
2016,07,21,16,36,27.10
2016,07,21,16,37,26.90
2016,07,21,16,38,26.80
2016,07,21,16,39,26.70
2016,07,21,16,40,26.70
2016,07,21,16,41,26.70
2016,07,21,16,42,26.70
2016,07,21,16,43,26.70
2016,07,21,16,44,26.70
2016,07,21,16,45,26.80
2016,07,21,16,46,26.90
2016,07,21,16,47,27.00
2016,07,21,16,48,27.10
2016,07,21,16,49,27.20
2016,07,21,16,50,27.30
2016,07,21,16,51,27.40
2016,07,21,16,52,27.40
2016,07,21,16,53,27.40
2016,07,21,16,54,27.40
2016,07,21,16,55,27.40
2016,07,21,16,56,27.30
2016,07,21,16,57,27.30
2016,07,21,16,58,27.30
2016,07,21,16,59,27.40
2016,07,21,17,00,27.50
2016,07,21,17,01,27.70
2016,07,21,17,02,27.80
2016,07,21,17,03,27.90
2016,07,21,17,04,28.10
2016,07,21,17,05,28.20
2016,07,21,17,06,28.30
2016,07,21,17,07,28.30
2016,07,21,17,08,28.30
2016,07,21,17,09,28.20
2016,07,21,17,10,28.20
2016,07,21,17,11,28.10
2016,07,21,17,12,28.00
2016,07,21,17,13,27.90
2016,07,21,17,14,27.90
2016,07,21,17,15,27.90
2016,07,21,17,16,27.90
2016,07,21,17,17,27.80
2016,07,21,17,18,27.80
2016,07,21,17,19,27.80